[[{"header":{"parameterUnit":"m.s-1","parameterCategory":1,"la1":30.2991,"la2":30.254,"lo1":-89.0895,"lo2":-89.0444,"dy":0.0017,"dx":0.0017,"nx":28,"ny":28,"refTime":"2025-07-29T09:00:00:Z","depth":0,"parameterNumber":2,"parameterNumberName":"U-component_of_WINDS"},"data":[0,0,0,0,0,0,0,0,0,0,0,0,0,0,0,0,0,0,0,0,0,0,0,0,0,0,0,0,0,0,0,0,0,0,0,0,0,0,0,0,0,0,0,0,0,0,0,0,0,0,0,0,0,0,0,0,0,0,1.5489,1.5489,0,1.5543,1.5544,1.5544,1.5549,1.5548,1.5548,1.5547,1.5598,1.56,1.5602,0,0,0,0,0,0,0,0,0,0,0,0,0,1.5384,1.5386,1.5489,1.5489,1.549,1.5543,1.5544,1.5544,1.5549,1.5548,1.5548,1.5547,1.5597,1.56,1.5602,0,0,0,0,0,0,0,0,0,0,0,0,0,1.5433,1.5386,1.5489,1.5499,1.55,1.5543,1.5544,1.5545,1.5549,1.5548,1.5548,1.5547,1.5597,1.5599,1.5602,1.5636,0,0,1.5611,1.5612,0,0,0,0,0,0,0,0,1.543,1.5437,1.5497,1.5498,1.55,1.5538,1.5525,1.5575,1.5549,1.5531,1.5547,1.5546,1.5579,1.5583,1.5595,1.5639,1.5641,1.5611,1.5613,1.5614,1.5615,0,0,0,0,0,0,0,1.5427,1.5434,1.551,1.5498,1.55,1.5499,1.5505,1.5535,1.5558,1.5532,1.5533,1.5539,1.5579,1.5592,1.5596,1.5642,1.5611,1.5613,1.5615,1.5616,1.5715,1.5716,0,0,0,0,0,0,1.5422,1.5431,1.5508,1.5512,1.5462,1.5502,1.5508,1.5527,1.5558,1.5562,1.554,1.5539,1.5588,1.5593,1.5598,1.5639,1.5614,1.5617,1.5618,1.5714,1.5715,1.5716,0,0,0,0,0,0,1.542,1.5429,1.5506,1.5472,1.5482,1.5504,1.5525,1.5528,1.5541,1.5564,1.5568,1.5549,1.5587,1.5594,1.5627,1.5641,1.5618,1.562,1.5713,1.5715,1.5716,1.5722,0,0,0,0,0,0,1.5417,1.5428,1.5442,1.5472,1.5483,1.5536,1.5526,1.553,1.5547,1.5546,1.5574,1.5577,1.5587,1.5623,1.563,1.5644,1.5623,1.5712,1.5714,1.5715,1.5721,1.5724,1.5726,0,0,0,0,0,1.5413,1.5441,1.5443,1.5452,1.5502,1.5537,1.5543,1.5555,1.5548,1.5561,1.5576,1.5576,1.5638,1.5626,1.5634,1.565,1.5711,1.5713,1.5715,1.572,1.5723,1.5726,0,0,0,0,0,0,1.5411,1.5445,1.5448,1.5487,1.5509,1.5537,1.5555,1.5558,1.5582,1.558,1.5593,1.5599,1.5631,1.5644,1.5629,1.5684,1.5674,1.5678,1.5674,1.5678,1.568,1.5676,1.5625,0,0,0,0,0,1.5415,1.5442,1.547,1.5502,1.5513,1.5532,1.5548,1.5555,1.5578,1.5587,1.5604,1.5624,1.5648,1.5664,1.5687,1.5723,1.5728,1.5738,1.574,1.5742,1.5745,1.5763,1.5767,1.5723,1.5723,1.5723,0,0,1.5424,1.5446,1.5462,1.5502,1.552,1.5546,1.554,1.5568,1.5586,1.559,1.5623,1.5636,1.566,1.5694,1.571,1.5705,1.5758,1.5745,1.5746,1.5748,1.5766,1.577,1.5774,1.5725,1.5725,1.5724,0,0,1.5453,1.5473,1.5502,1.552,1.5548,1.5561,1.5567,1.5595,1.5605,1.5638,1.5641,1.5663,1.5704,1.5721,1.5735,1.577,1.577,1.5777,1.579,1.5808,1.5811,1.5814,1.5826,1.583,1.578,1.578,1.578,0,1.546,1.5501,1.5515,1.5543,1.5559,1.5566,1.5594,1.561,1.5644,1.5654,1.5649,1.5701,1.5718,1.5755,1.5764,1.5775,1.5782,1.5773,1.581,1.5813,1.5816,1.5827,1.5831,1.578,1.578,1.578,1.578,0,1.5507,1.5535,1.5554,1.5588,1.5606,1.5634,1.5651,1.5668,1.5674,1.5686,1.5719,1.5739,1.5766,1.5776,1.5782,1.5814,1.581,1.5808,1.5798,1.5821,1.5831,1.5835,1.5781,1.5781,1.5781,1.5781,0,0,1.5535,1.5577,1.5584,1.5599,1.563,1.5651,1.5678,1.5706,1.572,1.5743,1.5764,1.5799,1.5797,1.5812,1.582,1.5836,1.586,1.5831,1.5831,1.5834,1.5896,1.5897,1.5902,1.5862,1.5862,1.5863,1.5894,0,1.5567,1.5617,1.5631,1.5672,1.5697,1.5704,1.5727,1.5748,1.576,1.5782,1.5795,1.5819,1.5815,1.5824,1.584,1.5854,1.5873,1.5852,1.588,1.5881,1.5873,1.5908,1.5909,1.5937,1.5898,1.5899,1.5899,0,1.561,1.5635,1.568,1.5707,1.5718,1.5739,1.5766,1.5787,1.581,1.5818,1.5835,1.5841,1.5868,1.5857,1.5893,1.5879,1.5891,1.5899,1.5901,1.5903,1.5891,1.5909,1.5946,1.595,1.5906,1.5905,1.5905,0,1.5625,1.567,1.5702,1.5715,1.5748,1.5762,1.5776,1.5799,1.5815,1.5837,1.5847,1.5872,1.5885,1.5904,1.5916,1.5907,1.595,1.5941,1.5956,1.5955,1.5963,1.5963,1.6002,1.5973,1.5973,1.5973,1.5973,0,1.5658,1.5684,1.5709,1.5729,1.5758,1.5773,1.5801,1.5815,1.5835,1.5856,1.5863,1.5882,1.5898,1.5918,1.5928,1.5955,1.5961,1.5967,1.5969,1.5966,1.5965,1.5973,1.5971,1.5974,1.5974,1.5974,1.5974,0,1.5679,1.5697,1.5732,1.5761,1.5769,1.5789,1.5813,1.5831,1.5844,1.5871,1.5878,1.5897,1.5922,1.5937,1.5968,1.5974,1.6004,1.6005,1.5997,1.5997,1.6011,1.6009,1.6056,1.6062,1.603,1.6031,1.6031,0,1.5698,1.5719,1.5751,1.5766,1.5781,1.5806,1.5822,1.5837,1.5854,1.5881,1.5896,1.5922,1.5943,1.5983,1.5998,1.6022,1.6023,1.6038,1.6027,1.6023,1.6022,1.602,1.6022,1.6039,1.604,1.604,1.604,0,1.573,1.5738,1.5763,1.579,1.581,1.5832,1.5853,1.5865,1.5883,1.5901,1.5928,1.5945,1.5977,1.6002,1.6027,1.6039,1.6042,1.6044,1.6048,1.6045,1.6038,1.6041,1.6001,1.6042,1.6042,1.6042,1.6042,1.6042,1.575,1.5769,1.5794,1.582,1.5839,1.5859,1.5877,1.5893,1.5916,1.5944,1.5951,1.5979,1.6,1.6034,1.6048,1.6068,1.6065,1.6072,1.6073,1.6075,1.6074,1.6036,1.6073,1.6073,1.6073,1.6073,1.6073,0,1.5781,1.5798,1.5823,1.5853,1.5874,1.5877,1.5901,1.5917,1.5942,1.5962,1.5984,1.6013,1.6038,1.6056,1.608,1.6093,1.6095,1.6099,1.6097,1.61,1.6076,1.6069,1.6097,1.6097,1.6097,1.6097,1.6097,1.6097,1.58,1.5831,1.5842,1.5881,1.5897,1.5926,1.5939,1.5957,1.5973,1.6007,1.6027,1.604,1.6059,1.6085,1.6106,1.6111,1.6119,1.6123,1.6127,1.6104,1.6102,1.6099,1.6093,1.6125,1.6125,1.6149,1.6149,1.6149]},{"header":{"parameterUnit":"m.s-1","parameterCategory":1,"la1":30.2991,"la2":30.254,"lo1":-89.0895,"lo2":-89.0444,"dy":0.0017,"dx":0.0017,"nx":28,"ny":28,"refTime":"2025-07-29T09:00:00:Z","depth":0,"parameterNumber":3,"parameterNumberName":"V-component_of_WINDS"},"data":[0,0,0,0,0,0,0,0,0,0,0,0,0,0,0,0,0,0,0,0,0,0,0,0,0,0,0,0,0,0,0,0,0,0,0,0,0,0,0,0,0,0,0,0,0,0,0,0,0,0,0,0,0,0,0,0,0,0,4.403,4.4029,0,4.3892,4.389,4.3888,4.3714,4.3711,4.3708,4.3706,4.3562,4.3561,4.356,0,0,0,0,0,0,0,0,0,0,0,0,0,4.4142,4.4141,4.403,4.4028,4.4027,4.3892,4.389,4.3888,4.3714,4.3711,4.3707,4.3704,4.3563,4.3561,4.356,0,0,0,0,0,0,0,0,0,0,0,0,0,4.4057,4.414,4.403,4.3924,4.3913,4.3892,4.389,4.3887,4.3715,4.3711,4.3707,4.3703,4.3563,4.3561,4.356,4.3632,0,0,4.3554,4.3553,0,0,0,0,0,0,0,0,4.4062,4.4054,4.3941,4.3931,4.3919,4.3816,4.3876,4.3802,4.3716,4.379,4.3705,4.3701,4.365,4.3641,4.3624,4.3625,4.3619,4.3554,4.3553,4.3552,4.3551,0,0,0,0,0,0,0,4.4069,4.4058,4.3975,4.394,4.3926,4.3882,4.3865,4.3862,4.3745,4.3783,4.377,4.3756,4.3643,4.3626,4.3619,4.3617,4.3554,4.3552,4.3551,4.355,4.3668,4.3672,0,0,0,0,0,0,4.4091,4.4065,4.398,4.3971,4.3982,4.3883,4.3865,4.3853,4.3745,4.3724,4.376,4.3749,4.3631,4.3621,4.3614,4.3689,4.3552,4.355,4.3549,4.3664,4.3669,4.3674,0,0,0,0,0,0,4.4094,4.4085,4.3985,4.4014,4.3998,4.3886,4.3874,4.3852,4.3835,4.3727,4.3705,4.3764,4.3627,4.3616,4.3628,4.3682,4.3549,4.3548,4.3659,4.3666,4.3672,4.3844,0,0,0,0,0,0,4.4098,4.4087,4.4114,4.4016,4.3997,4.4004,4.3877,4.3853,4.3833,4.3817,4.3725,4.3706,4.3623,4.3632,4.3627,4.3677,4.3546,4.3654,4.3662,4.367,4.3833,4.3855,4.3874,0,0,0,0,0,4.4102,4.4168,4.4116,4.4107,4.4029,4.4007,4.3996,4.39,4.3838,4.3864,4.3794,4.3709,4.3677,4.3635,4.3627,4.3678,4.365,4.366,4.3669,4.3823,4.3851,4.3874,0,0,0,0,0,0,4.4275,4.4153,4.4095,4.4131,4.4081,4.3978,4.4007,4.3933,4.3899,4.3885,4.3766,4.3747,4.3774,4.3727,4.3681,4.3741,4.3651,4.3659,4.3771,4.3796,4.3816,4.3827,4.3545,0,0,0,0,0,4.4318,4.4311,4.4204,4.4247,4.4225,4.4121,4.4108,4.4038,4.3981,4.3959,4.389,4.3837,4.3815,4.3803,4.3776,4.3825,4.3801,4.3856,4.3877,4.3894,4.3903,4.3923,4.3945,4.3705,4.3705,4.3705,0,0,4.4405,4.4338,4.4341,4.428,4.4233,4.4227,4.4104,4.4104,4.4098,4.3958,4.3965,4.3913,4.3846,4.3877,4.3887,4.3839,4.3964,4.3907,4.3922,4.392,4.3935,4.3958,4.3978,4.3711,4.371,4.3709,0,0,4.4561,4.4511,4.4539,4.4494,4.4425,4.4355,4.4362,4.427,4.423,4.4235,4.413,4.4121,4.4086,4.4042,4.4015,4.4154,4.4074,4.4148,4.4257,4.4278,4.4297,4.4313,4.4361,4.438,4.4157,4.4158,4.4158,0,4.4679,4.4667,4.4564,4.4569,4.4545,4.4418,4.4446,4.4407,4.4333,4.4318,4.4266,4.4217,4.4164,4.4181,4.4215,4.4198,4.4201,4.4158,4.4303,4.4318,4.4331,4.4375,4.4394,4.4167,4.4166,4.4165,4.4164,0,4.4814,4.4807,4.4839,4.477,4.4749,4.4766,4.4664,4.4655,4.4587,4.4523,4.4529,4.446,4.4416,4.4415,4.4349,4.4423,4.4395,4.4325,4.4231,4.4365,4.4405,4.4421,4.4181,4.4177,4.4174,4.4172,0,0,4.5075,4.4948,4.4962,4.4928,4.4841,4.4834,4.4844,4.4802,4.4796,4.4749,4.4753,4.4726,4.4659,4.4629,4.4556,4.4575,4.4687,4.4501,4.4498,4.4537,4.4762,4.4815,4.4837,4.4634,4.4637,4.4639,4.4767,0,4.5215,4.5226,4.5133,4.5169,4.516,4.5039,4.5048,4.4995,4.4935,4.4918,4.4851,4.4833,4.4748,4.4728,4.4741,4.4671,4.473,4.466,4.4636,4.4636,4.4655,4.4857,4.4914,4.5038,4.4782,4.4785,4.4786,0,4.5379,4.534,4.5376,4.5286,4.5279,4.5289,4.5241,4.5228,4.5165,4.5119,4.5086,4.5002,4.5004,4.4916,4.4917,4.4871,4.4855,4.4819,4.4821,4.4815,4.4719,4.4855,4.5076,4.5095,4.481,4.4808,4.4806,0,4.5564,4.5521,4.5536,4.5512,4.5408,4.5417,4.5374,4.5307,4.5287,4.5245,4.5231,4.5191,4.5169,4.5138,4.5045,4.499,4.5056,4.4961,4.5017,4.502,4.5036,4.5036,4.5257,4.5028,4.5028,4.5028,4.5027,0,4.5729,4.5755,4.5618,4.5628,4.5653,4.5545,4.5572,4.5517,4.5458,4.5453,4.5346,4.5344,4.5222,4.5206,4.5133,4.5143,4.5134,4.5097,4.5077,4.5106,4.5111,4.5093,4.5082,4.5033,4.5032,4.5031,4.503,0,4.594,4.585,4.5858,4.5759,4.5734,4.5757,4.5671,4.5675,4.5608,4.5604,4.5596,4.5491,4.5466,4.537,4.5322,4.5273,4.5307,4.5269,4.5329,4.5315,4.5377,4.5372,4.5593,4.5616,4.5375,4.5377,4.5379,0,4.6051,4.6068,4.597,4.596,4.5922,4.5906,4.5885,4.5779,4.5761,4.569,4.5702,4.5669,4.5636,4.5602,4.552,4.5482,4.5442,4.5522,4.5435,4.5463,4.5441,4.5441,4.5442,4.5541,4.5544,4.5546,4.5548,0,4.6256,4.621,4.6185,4.6144,4.6122,4.6084,4.604,4.6037,4.5918,4.5904,4.5877,4.5852,4.5802,4.577,4.5718,4.5672,4.5591,4.5576,4.5587,4.5616,4.565,4.5631,4.5378,4.5572,4.5569,4.5568,4.5566,4.5565,4.6419,4.6428,4.6361,4.6335,4.6291,4.6252,4.625,4.6183,4.6159,4.6111,4.6049,4.603,4.5964,4.5887,4.5847,4.5829,4.5784,4.58,4.5804,4.5809,4.5823,4.5654,4.5819,4.5819,4.5818,4.5817,4.5817,0,4.6618,4.6568,4.6546,4.6488,4.6468,4.6393,4.634,4.6327,4.6312,4.6258,4.6228,4.6197,4.6165,4.608,4.6039,4.6041,4.6003,4.6034,4.6032,4.6023,4.5866,4.5861,4.6066,4.6066,4.6066,4.6066,4.6066,4.6066,4.6719,4.673,4.6676,4.6664,4.6613,4.6594,4.657,4.6533,4.6489,4.6459,4.6432,4.6377,4.631,4.6263,4.623,4.6205,4.6195,4.6238,4.6202,4.6058,4.6034,4.6011,4.6005,4.6237,4.6238,4.6359,4.636,4.6361]}]]